| time (UTC) | temp F | wind direction | speed knots | gust knots | rain 1hr in | rain 24hr in | rain mn in | humidity % | barometer mb |
| 20260504190805 | 64 | 279 | 2.6 | 5.2 | 0.00 | 0.00 | 0.00 | 21 | 1010.1 |
| 20260504190306 | 65 | 261 | 0.9 | 5.2 | 0.00 | 0.00 | 0.00 | 21 | 1010.2 |
| 20260504185814 | 64 | 9 | 0.0 | 7.8 | 0.00 | 0.00 | 0.00 | 21 | 1010.3 |
| 20260504185323 | 64 | 5 | 0.9 | 7.8 | 0.00 | 0.00 | 0.00 | 21 | 1010.3 |
| 20260504184811 | 64 | 331 | 1.7 | 5.2 | 0.00 | 0.00 | 0.00 | 23 | 1010.3 |
| 20260504184313 | 63 | 355 | 1.7 | 7.8 | 0.00 | 0.00 | 0.00 | 24 | 1010.5 |
| 20260504183849 | 62 | 346 | 3.5 | 7.8 | 0.00 | 0.00 | 0.00 | 25 | 1010.5 |
| 20260504183310 | 61 | 348 | 1.7 | 8.7 | 0.00 | 0.00 | 0.00 | 27 | 1010.5 |
| 20260504182818 | 60 | 73 | 1.7 | 9.6 | 0.00 | 0.00 | 0.00 | 27 | 1010.6 |
| 20260504182327 | 60 | 103 | 6.1 | 10.4 | 0.00 | 0.00 | 0.00 | 27 | 1010.7 |
| 20260504181808 | 60 | 126 | 5.2 | 11.3 | 0.00 | 0.00 | 0.00 | 27 | 1010.7 |
| 20260504181316 | 60 | 113 | 4.3 | 11.3 | 0.00 | 0.00 | 0.00 | 27 | 1010.7 |
| 20260504180825 | 61 | 132 | 7.8 | 13.9 | 0.00 | 0.00 | 0.00 | 26 | 1010.7 |
| 20260504180335 | 62 | 130 | 6.1 | 13.9 | 0.00 | 0.00 | 0.00 | 25 | 1010.7 |
| 20260504175816 | 63 | 122 | 7.8 | 12.2 | 0.00 | 0.00 | 0.00 | 25 | 1010.8 |
| 20260504175324 | 62 | 101 | 4.3 | 12.2 | 0.00 | 0.00 | 0.00 | 26 | 1010.9 |
| 20260504174812 | 61 | 115 | 7.8 | 12.2 | 0.00 | 0.00 | 0.00 | 27 | 1011.0 |
| 20260504174313 | 61 | 90 | 0.0 | 8.7 | 0.00 | 0.00 | 0.00 | 25 | 1011.0 |
| 20260504173821 | 62 | 111 | 2.6 | 8.7 | 0.00 | 0.00 | 0.00 | 25 | 1011.0 |
| 20260504173309 | 62 | 111 | 1.7 | 7.8 | 0.00 | 0.00 | 0.00 | 25 | 1011.0 |
| 20260504172817 | 62 | 111 | 0.9 | 7.8 | 0.00 | 0.00 | 0.00 | 27 | 1011.1 |
| 20260504172319 | 61 | 121 | 4.3 | 7.8 | 0.00 | 0.00 | 0.00 | 28 | 1011.1 |
| 20260504171806 | 60 | 61 | 0.0 | 7.8 | 0.00 | 0.00 | 0.00 | 28 | 1011.1 |
| 20260504171313 | 60 | 17 | 2.6 | 11.3 | 0.00 | 0.00 | 0.00 | 27 | 1011.1 |
| 20260504170823 | 61 | 5 | 4.3 | 11.3 | 0.00 | 0.00 | 0.00 | 26 | 1011.0 |
| 20260504170330 | 60 | 308 | 0.9 | 6.1 | 0.00 | 0.00 | 0.00 | 28 | 1011.2 |
| 20260504160312 | 57 | 106 | 6.1 | 9.6 | 0.00 | 0.00 | 0.00 | 34 | 1011.3 |
| 20260504150807 | 50 | 109 | 0.9 | 3.5 | 0.00 | 0.00 | 0.00 | 41 | 1011.9 |
| 20260504150315 | 49 | 103 | 0.0 | 2.6 | 0.00 | 0.00 | 0.00 | 41 | 1012.0 |
| 20260504141321 | 41 | 72 | 0.0 | 0.0 | 0.00 | 0.00 | 0.00 | 55 | 1012.1 |
| 20260504140829 | 40 | 72 | 0.0 | 0.0 | 0.00 | 0.00 | 0.00 | 58 | 1012.1 |
| 20260504140311 | 39 | 72 | 0.0 | 0.0 | 0.00 | 0.00 | 0.00 | 59 | 1012.1 |
| 20260504130806 | 31 | 336 | 0.0 | 0.0 | 0.00 | 0.00 | 0.00 | 66 | 1012.0 |
| 20260504130316 | 30 | 336 | 0.0 | 1.7 | 0.00 | 0.00 | 0.00 | 67 | 1012.0 |
| 20260504120313 | 28 | 337 | 0.0 | 0.0 | 0.00 | 0.00 | 0.00 | 67 | 1011.8 |
| 20260504110310 | 28 | 336 | 0.0 | 0.0 | 0.00 | 0.00 | 0.00 | 67 | 1012.0 |
| 20260504100315 | 28 | 64 | 2.6 | 3.5 | 0.00 | 0.00 | 0.00 | 66 | 1012.1 |
| 20260504081823 | 32 | 94 | 0.0 | 0.0 | 0.00 | 0.00 | 0.00 | 66 | 1012.6 |
| 20260504081305 | 32 | 94 | 0.0 | 2.6 | 0.00 | 0.00 | 0.00 | 66 | 1012.6 |
| 20260504080813 | 32 | 94 | 0.0 | 2.6 | 0.00 | 0.00 | 0.00 | 65 | 1012.6 |
| 20260504080322 | 32 | 125 | 0.0 | 0.0 | 0.00 | 0.00 | 0.00 | 64 | 1012.7 |
| 20260504070317 | 37 | 265 | 4.3 | 5.2 | 0.00 | 0.00 | 0.00 | 57 | 1012.8 |
| 20260504050324 | 44 | 252 | 4.3 | 7.0 | 0.00 | 0.00 | 0.00 | 46 | 1013.5 |
| 20260504045813 | 44 | 247 | 5.2 | 7.0 | 0.00 | 0.00 | 0.00 | 46 | 1013.5 |
| 20260504045321 | 43 | 253 | 5.2 | 7.0 | 0.00 | 0.00 | 0.00 | 47 | 1013.5 |
| 20260504044829 | 42 | 244 | 5.2 | 7.0 | 0.00 | 0.00 | 0.00 | 48 | 1013.5 |
| 20260504044310 | 42 | 248 | 4.3 | 7.0 | 0.00 | 0.00 | 0.00 | 47 | 1013.5 |
| 20260504043840 | 42 | 242 | 4.3 | 6.1 | 0.00 | 0.00 | 0.00 | 47 | 1013.5 |
| 20260504043307 | 43 | 240 | 3.5 | 5.2 | 0.00 | 0.00 | 0.00 | 45 | 1013.7 |
| 20260504042809 | 44 | 254 | 4.3 | 7.0 | 0.00 | 0.00 | 0.00 | 44 | 1013.7 |
| 20260504042316 | 45 | 249 | 5.2 | 7.0 | 0.00 | 0.00 | 0.00 | 43 | 1013.7 |
| 20260504041804 | 45 | 250 | 4.3 | 6.1 | 0.00 | 0.00 | 0.00 | 43 | 1013.7 |
| 20260504041312 | 45 | 250 | 5.2 | 6.1 | 0.00 | 0.00 | 0.00 | 43 | 1013.7 |
| 20260504040821 | 45 | 258 | 4.3 | 7.0 | 0.00 | 0.00 | 0.00 | 42 | 1013.7 |
| 20260504040330 | 45 | 271 | 4.3 | 7.0 | 0.00 | 0.00 | 0.00 | 43 | 1013.6 |
| 20260504035811 | 45 | 255 | 5.2 | 7.0 | 0.00 | 0.00 | 0.00 | 43 | 1013.7 |
| 20260504035320 | 45 | 252 | 5.2 | 6.1 | 0.00 | 0.00 | 0.00 | 43 | 1013.7 |
| 20260504034808 | 45 | 251 | 4.3 | 6.1 | 0.00 | 0.00 | 0.00 | 42 | 1013.7 |
| 20260504034316 | 46 | 242 | 4.3 | 6.1 | 0.00 | 0.00 | 0.00 | 42 | 1013.6 |
| 20260504033817 | 46 | 244 | 4.3 | 5.2 | 0.00 | 0.00 | 0.00 | 41 | 1013.6 |
| 20260504033309 | 47 | 236 | 3.5 | 6.1 | 0.00 | 0.00 | 0.00 | 41 | 1013.5 |
| 20260504032834 | 47 | 240 | 3.5 | 6.1 | 0.00 | 0.00 | 0.00 | 40 | 1013.5 |
| 20260504032304 | 47 | 238 | 4.3 | 6.1 | 0.00 | 0.00 | 0.00 | 39 | 1013.5 |
| 20260504031814 | 47 | 236 | 4.3 | 6.1 | 0.00 | 0.00 | 0.00 | 39 | 1013.4 |
| 20260504031314 | 47 | 225 | 4.3 | 6.1 | 0.00 | 0.00 | 0.00 | 39 | 1013.4 |
| 20260504030820 | 48 | 240 | 4.3 | 7.0 | 0.00 | 0.00 | 0.00 | 38 | 1013.3 |
| 20260504030309 | 49 | 235 | 4.3 | 7.0 | 0.00 | 0.00 | 0.00 | 37 | 1013.3 |
| 20260504025810 | 49 | 231 | 5.2 | 7.0 | 0.00 | 0.00 | 0.00 | 37 | 1013.3 |
| 20260504025318 | 49 | 232 | 5.2 | 7.0 | 0.00 | 0.00 | 0.00 | 36 | 1013.3 |
| 20260504024807 | 50 | 233 | 5.2 | 7.0 | 0.00 | 0.00 | 0.00 | 36 | 1013.2 |
| 20260504024336 | 50 | 230 | 5.2 | 7.0 | 0.00 | 0.00 | 0.00 | 36 | 1013.1 |
| 20260504023845 | 51 | 230 | 5.2 | 6.1 | 0.00 | 0.00 | 0.00 | 35 | 1013.1 |
| 20260504023333 | 52 | 229 | 4.3 | 6.1 | 0.00 | 0.00 | 0.00 | 34 | 1013.0 |
| 20260504022813 | 52 | 231 | 3.5 | 5.2 | 0.00 | 0.00 | 0.00 | 34 | 1013.0 |
| 20260504022345 | 53 | 225 | 3.5 | 7.0 | 0.00 | 0.00 | 0.00 | 32 | 1013.0 |
| 20260504021809 | 54 | 227 | 5.2 | 8.7 | 0.00 | 0.00 | 0.00 | 31 | 1013.0 |
| 20260504021317 | 55 | 215 | 6.1 | 8.7 | 0.00 | 0.00 | 0.00 | 31 | 1013.0 |
| 20260504020825 | 56 | 219 | 6.1 | 11.3 | 0.00 | 0.00 | 0.00 | 30 | 1013.0 |
| 20260504020306 | 57 | 231 | 7.0 | 11.3 | 0.00 | 0.00 | 0.00 | 29 | 1013.0 |
| 20260504015814 | 57 | 209 | 7.8 | 11.3 | 0.00 | 0.00 | 0.00 | 29 | 1012.8 |
| 20260504015305 | 58 | 217 | 7.0 | 13.0 | 0.00 | 0.00 | 0.00 | 28 | 1012.8 |
| 20260504014804 | 58 | 215 | 8.7 | 13.0 | 0.00 | 0.00 | 0.00 | 27 | 1012.8 |
| 20260504014313 | 59 | 227 | 8.7 | 15.6 | 0.00 | 0.00 | 0.00 | 27 | 1012.8 |
| 20260504013850 | 59 | 219 | 11.3 | 15.6 | 0.00 | 0.00 | 0.00 | 25 | 1012.9 |
| 20260504013310 | 60 | 227 | 10.4 | 14.8 | 0.00 | 0.00 | 0.00 | 25 | 1012.9 |
| 20260504012839 | 60 | 236 | 10.4 | 15.6 | 0.00 | 0.00 | 0.00 | 24 | 1012.9 |
| 20260504012327 | 61 | 213 | 9.6 | 15.6 | 0.00 | 0.00 | 0.00 | 24 | 1012.9 |
| 20260504011815 | 61 | 236 | 7.8 | 15.6 | 0.00 | 0.00 | 0.00 | 24 | 1013.0 |
| 20260504011324 | 62 | 248 | 9.6 | 13.9 | 0.00 | 0.00 | 0.00 | 23 | 1012.9 |
| 20260504010805 | 62 | 226 | 8.7 | 13.9 | 0.00 | 0.00 | 0.00 | 22 | 1013.0 |
| 20260504010314 | 62 | 242 | 9.6 | 13.9 | 0.00 | 0.00 | 0.00 | 22 | 1012.9 |
| 20260504005844 | 63 | 232 | 9.6 | 15.6 | 0.00 | 0.00 | 0.00 | 22 | 1012.9 |
| 20260504005312 | 63 | 244 | 8.7 | 15.6 | 0.00 | 0.00 | 0.00 | 22 | 1012.9 |
| 20260504004821 | 63 | 226 | 10.4 | 14.8 | 0.00 | 0.00 | 0.00 | 21 | 1013.0 |
| 20260504004322 | 63 | 234 | 10.4 | 17.4 | 0.00 | 0.00 | 0.00 | 22 | 1013.0 |
| 20260504003810 | 63 | 220 | 12.2 | 18.2 | 0.00 | 0.00 | 0.00 | 20 | 1013.0 |
| 20260504003318 | 64 | 223 | 13.0 | 18.2 | 0.00 | 0.00 | 0.00 | 20 | 1013.0 |
| 20260504002827 | 64 | 234 | 13.9 | 18.2 | 0.00 | 0.00 | 0.00 | 20 | 1013.0 |
| 20260504002329 | 65 | 209 | 10.4 | 17.4 | 0.00 | 0.00 | 0.00 | 19 | 1013.0 |
| 20260504001815 | 65 | 223 | 12.2 | 17.4 | 0.00 | 0.00 | 0.00 | 20 | 1013.0 |
| 20260504001324 | 65 | 234 | 11.3 | 16.5 | 0.00 | 0.00 | 0.00 | 18 | 1013.0 |
| 20260504000811 | 65 | 267 | 6.1 | 15.6 | 0.00 | 0.00 | 0.00 | 18 | 1013.0 |
| 20260504000313 | 65 | 234 | 9.6 | 16.5 | 0.00 | 0.00 | 0.00 | 18 | 1013.1 |
| 20260503235821 | 66 | 219 | 12.2 | 15.6 | 0.00 | 0.00 | 0.00 | 18 | 1013.0 |
| 20260503235310 | 66 | 215 | 11.3 | 20.0 | 0.00 | 0.00 | 0.00 | 17 | 1013.1 |
| 20260503234818 | 66 | 269 | 13.0 | 20.9 | 0.00 | 0.00 | 0.00 | 17 | 1013.1 |
| 20260503234319 | 67 | 218 | 13.9 | 20.9 | 0.00 | 0.00 | 0.00 | 17 | 1013.0 |
| 20260503233807 | 66 | 340 | 5.2 | 16.5 | 0.00 | 0.00 | 0.00 | 18 | 1013.1 |
| 20260503233315 | 66 | 311 | 10.4 | 14.8 | 0.00 | 0.00 | 0.00 | 18 | 1013.2 |
| 20260503232817 | 66 | 271 | 7.0 | 13.0 | 0.00 | 0.00 | 0.00 | 17 | 1013.2 |
| 20260503232306 | 65 | 268 | 4.3 | 15.6 | 0.00 | 0.00 | 0.00 | 18 | 1013.2 |
| 20260503231813 | 63 | 213 | 10.4 | 14.8 | 0.00 | 0.00 | 0.00 | 19 | 1013.3 |
| 20260503231321 | 63 | 230 | 7.8 | 14.8 | 0.00 | 0.00 | 0.00 | 18 | 1013.3 |
| 20260503230829 | 63 | 242 | 7.8 | 12.2 | 0.00 | 0.00 | 0.00 | 18 | 1013.3 |
| 20260503230338 | 63 | 260 | 8.7 | 11.3 | 0.00 | 0.00 | 0.00 | 18 | 1013.5 |
| 20260503225815 | 64 | 260 | 6.1 | 13.9 | 0.00 | 0.00 | 0.00 | 18 | 1013.5 |
| 20260503225345 | 66 | 242 | 8.7 | 16.5 | 0.00 | 0.00 | 0.00 | 17 | 1013.4 |
| 20260503224811 | 67 | 251 | 7.8 | 16.5 | 0.00 | 0.00 | 0.00 | 16 | 1013.5 |
| 20260503224341 | 67 | 259 | 8.7 | 16.5 | 0.00 | 0.00 | 0.00 | 16 | 1013.4 |
| 20260503223829 | 66 | 222 | 7.8 | 14.8 | 0.00 | 0.00 | 0.00 | 16 | 1013.4 |
| 20260503223338 | 67 | 213 | 9.6 | 14.8 | 0.00 | 0.00 | 0.00 | 16 | 1013.5 |
| 20260503222819 | 68 | 227 | 9.6 | 15.6 | 0.00 | 0.00 | 0.00 | 16 | 1013.4 |
| 20260503222306 | 68 | 211 | 7.8 | 17.4 | 0.00 | 0.00 | 0.00 | 16 | 1013.5 |
| 20260503221835 | 68 | 207 | 7.8 | 13.0 | 0.00 | 0.00 | 0.00 | 16 | 1013.5 |
| 20260503221344 | 68 | 287 | 7.8 | 18.2 | 0.00 | 0.00 | 0.00 | 16 | 1013.7 |
| 20260503220811 | 67 | 275 | 11.3 | 18.2 | 0.00 | 0.00 | 0.00 | 16 | 1013.7 |
| 20260503220312 | 68 | 269 | 10.4 | 19.1 | 0.00 | 0.00 | 0.00 | 16 | 1013.8 |
| 20260503215820 | 68 | 251 | 12.2 | 19.1 | 0.00 | 0.00 | 0.00 | 16 | 1014.0 |
| 20260503215308 | 67 | 257 | 9.6 | 15.6 | 0.00 | 0.00 | 0.00 | 17 | 1014.0 |
| 20260503214816 | 66 | 223 | 7.8 | 13.9 | 0.00 | 0.00 | 0.00 | 17 | 1014.1 |
| 20260503214317 | 64 | 219 | 8.7 | 11.3 | 0.00 | 0.00 | 0.00 | 18 | 1014.2 |
| 20260503213805 | 64 | 209 | 4.3 | 7.8 | 0.00 | 0.00 | 0.00 | 19 | 1014.2 |
| 20260503213312 | 63 | 160 | 0.0 | 10.4 | 0.00 | 0.00 | 0.00 | 18 | 1014.3 |
| 20260503212813 | 64 | 226 | 6.1 | 13.0 | 0.00 | 0.00 | 0.00 | 18 | 1014.5 |
| 20260503212321 | 64 | 240 | 5.2 | 13.0 | 0.00 | 0.00 | 0.00 | 17 | 1014.5 |
| 20260503211830 | 65 | 238 | 6.1 | 13.0 | 0.00 | 0.00 | 0.00 | 17 | 1014.5 |
| 20260503211316 | 66 | 216 | 8.7 | 13.0 | 0.00 | 0.00 | 0.00 | 18 | 1014.6 |
| 20260503210826 | 63 | 243 | 1.7 | 4.3 | 0.00 | 0.00 | 0.00 | 18 | 1014.6 |
| 20260503210313 | 63 | 209 | 0.9 | 10.4 | 0.00 | 0.00 | 0.00 | 17 | 1014.7 |
| 20260503205843 | 64 | 228 | 5.2 | 12.2 | 0.00 | 0.00 | 0.00 | 17 | 1014.7 |
| 20260503205330 | 64 | 224 | 6.1 | 13.9 | 0.00 | 0.00 | 0.00 | 17 | 1014.8 |
| 20260503204811 | 64 | 224 | 11.3 | 13.9 | 0.00 | 0.00 | 0.00 | 18 | 1014.8 |
| 20260503204320 | 64 | 249 | 3.5 | 7.0 | 0.00 | 0.00 | 0.00 | 17 | 1014.8 |
| 20260503203829 | 65 | 163 | 1.7 | 9.6 | 0.00 | 0.00 | 0.00 | 17 | 1014.8 |
| 20260503203316 | 66 | 188 | 5.2 | 19.1 | 0.00 | 0.00 | 0.00 | 16 | 1014.8 |
| 20260503202823 | 67 | 172 | 8.7 | 19.1 | 0.00 | 0.00 | 0.00 | 16 | 1015.0 |
| 20260503202312 | 66 | 194 | 10.4 | 13.9 | 0.00 | 0.00 | 0.00 | 16 | 1015.0 |
| 20260503201842 | 66 | 243 | 6.1 | 13.9 | 0.00 | 0.00 | 0.00 | 15 | 1015.0 |
| 20260503201329 | 65 | 197 | 2.6 | 11.3 | 0.00 | 0.00 | 0.00 | 15 | 1015.1 |
| 20260503200810 | 64 | 281 | 5.2 | 12.2 | 0.00 | 0.00 | 0.00 | 16 | 1015.1 |
| 20260503200319 | 65 | 157 | 6.1 | 16.5 | 0.00 | 0.00 | 0.00 | 15 | 1015.1 |
| 20260503195809 | 64 | 214 | 7.8 | 16.5 | 0.00 | 0.00 | 0.00 | 16 | 1015.3 |
| 20260503195310 | 64 | 217 | 6.1 | 11.3 | 0.00 | 0.00 | 0.00 | 16 | 1015.3 |
| 20260503194817 | 65 | 176 | 7.0 | 11.3 | 0.00 | 0.00 | 0.00 | 15 | 1015.3 |
| 20260503194327 | 67 | 221 | 5.2 | 12.2 | 0.00 | 0.00 | 0.00 | 15 | 1015.4 |
| 20260503193814 | 66 | 307 | 6.1 | 13.9 | 0.00 | 0.00 | 0.00 | 16 | 1015.4 |
| 20260503193322 | 64 | 232 | 7.8 | 21.7 | 0.00 | 0.00 | 0.00 | 17 | 1015.5 |
| 20260503192831 | 64 | 263 | 6.1 | 21.7 | 0.00 | 0.00 | 0.00 | 16 | 1015.6 |
| 20260503192318 | 64 | 189 | 3.5 | 7.0 | 0.00 | 0.00 | 0.00 | 16 | 1015.7 |
| 20260503191826 | 64 | 339 | 3.5 | 10.4 | 0.00 | 0.00 | 0.00 | 17 | 1015.6 |
| 20260503191313 | 64 | 163 | 4.3 | 12.2 | 0.00 | 0.00 | 0.00 | 17 | 1015.8 |